Location: Unspecified
(0.0000°N, 0.0000°E)
Time: 00:09:18
(UTC+00:00)

Envisat - Pass Details

Date: 18 July 2019
Orbit: 764 x 766 km, 98.1° (Epoch: 18 November)

Event Time Altitude Azimuth Distance (km) Brightness Sun altitude
Rises 18:45:32 0° 169° (SSE) 3,231 5.9 -9.2°
Reaches altitude 10° 18:47:51 10° 169° (SSE) 2,302 5.2 -9.7°
Maximum altitude 18:52:56 88° 259° (WSW) 769 3.0 -10.9°
Drops below altitude 10° 18:57:59 10° 348° (NNW) 2,291 5.9 -12.1°
Sets 19:00:17 0° 348° (NNW) 3,214 6.7 -12.6°
